{"data":{"norad_id":39227,"epoch":"2026-05-25T03:42:04.982112Z","epoch_age_seconds":75810,"freshness":"FRESH","line1":"1 39227U 13042A   26145.15422433  .00000208  00000+0  19183-4 0  9990","line2":"2 39227  97.6204 332.1787 0002880 185.8199 174.2994 15.04504313700394","mean_motion":15.04504313,"eccentricity":0.000288,"inclination_deg":97.6204,"raan_deg":332.1787,"arg_perigee_deg":185.8199,"mean_anomaly_deg":174.2994,"bstar":1.9183e-5,"rev_number":70039,"period_min":95.712587033308,"perigee_km":551.03148983221,"apogee_km":555.02384067939,"semimajor_km":6931.1646652558,"source":"CELESTRAK","updated_at":"2026-05-25T13:38:12.782535Z"}}